ORBCOMM FM117 [+] (41188 NORAD) Tracking and Keplerian Element Data

This shows tracking and keplerian element data for the satellite.

Feedback or suggestion? Click here.




ElementValue
Catalog41188
NameORBCOMM FM117 [+]
Epoch Orbit36197
Epoch Day269.98104077
Epoch Year2022
RAAN108.4581
Inclination47.0005
Eccentricity0.0002365
Argument of Perigee91.2991
Mean Anonmoly268.8164
Mean Motion14.55162016
Decay Rate3.17E-06
L11 41188U 15081K 22269.98104077 .00000317 00000+0 11082-3 0 9999
L22 41188 47.0005 108.4581 0002365 91.2991 268.8164 14.55162016361976

Live tracking and technical data element details for ORBCOMM FM117 [+] (NORAD 41188). ORBCOMM FM117 [+] can be tracked NOW for your location showing map with azimuth and elevation plus other details from your city location.

Track the satellite on the map from your city or location and see movement details for azimuth, elevation, latitude, longitude, range, height, and movement on the map or in text.







IsCatalogInMostPopularTable: catalog: 41188, numindb: 602
Update: records affected: 1



GetName: 41188 ORBCOMM FM117 [+]

Hit Count: updated at: Wed, 28 Sep 2022 22:06:05 GMT